Regional Weather Roundup
Issued by NWS

Home | Current Version | Previous Version | Text Only | Print | Product List | Glossary On
Versions: 1 2 3 4 5 6 7 8 9 10 11 12 13 14 15 16 17 18 19 20 21 22 23 24 25 26 27 28 29 30 31 32 33 34 35 36 37 38 39 40 41 42 43 44 45 46 47 48 49 50
000
ASUS44 KFWD 221603
RWRTX
NORTH TEXAS HOURLY WEATHER ROUNDUP
NATIONAL WEATHER SERVICE FORT WORTH TX
1100 AM CDT FRI AUG 22 2014

NOTE: "FAIR" INDICATES FEW OR NO CLOUDS BELOW 12,000 FEET WITH NO
SIGNIFICANT WEATHER AND/OR OBSTRUCTIONS TO VISIBILITY.

TXZ118-119-221700-
DALLAS/FORT WORTH METROPLEX

CITY           SKY/WX    TMP DP  RH WIND       PRES   REMARKS
DFW AIRPORT    SUNNY     89  68  49 SW20      30.04S HX  93
DALLAS LOVE    SUNNY     88  71  57 SW10      30.05S HX  94
FTW MEACHAM    SUNNY     90  68  48 S17G25    30.04S HX  94
DAL-EXECUTIVE  SUNNY     89  69  51 S8        30.05S HX  93
FTW-ALLIANCE   SUNNY     90  67  46 SW13G23   30.03S HX  93
FTW-NAS-JRB    SUNNY     93  64  38 SW18G24   30.08F HX  94
FTW-SPINKS     SUNNY     90  70  51 S12G21    30.07S HX  95
ARLINGTON      SUNNY     88  68  51 S13G21    30.05S HX  91
ADDISON        SUNNY     88  70  55 SW7G20    30.06S HX  92
MESQUITE       SUNNY     88  70  55 SW14G21   30.06S HX  92
LANCASTER      SUNNY     89  68  50 SW10G16   30.07S HX  92
$$

TXZ091>094-102>105-117-120-121-131>134-221700-
NORTH CENTRAL TEXAS

CITY           SKY/WX    TMP DP  RH WIND       PRES   REMARKS
SHRMAN/DENISON SUNNY     88  70  55 SW13      30.06S HX  92
GAINESVILLE    SUNNY     86  71  60 S15       30.06S HX  91
BOWIE          SUNNY     89  67  49 S16G22    30.05R HX  91
BRIDGEPORT     SUNNY     88  64  43 SW13      30.06S
DECATUR        SUNNY     87  65  47 S12G20    30.06S
DENTON         SUNNY     89  68  49 S16       30.05R HX  93
MCKINNEY       SUNNY     87  69  54 SW13      30.06R HX  91
GREENVILLE       N/A     88  70  55 SW13      30.07S HX  92
ROCKWALL       SUNNY     88  73  60 SW9       30.05F HX  94
TERRELL        SUNNY     90  72  55 SW13      30.06F HX  97
WAXAHACHIE     SUNNY     88  67  50 S14G21    30.08S HX  90
CLEBURNE       SUNNY     88  72  58 S13       30.08S HX  94
GRANBURY       SUNNY     91  64  40 S13       30.06S HX  92
$$

TXZ083>090-098>101-113>116-127>130-139>142-154-155-221700-
WESTERN NORTH TEXAS

CITY           SKY/WX    TMP DP  RH WIND       PRES   REMARKS
WICHITA FALLS  SUNNY     91  69  48 SW21      30.00S HX  96
WF-KICKAPOO    SUNNY     91  65  42 S12G23    30.02F HX  92
VERNON         SUNNY     92  65  40 S18       30.01S HX  94
ABILENE        SUNNY     86  62  44 SW20G25   30.07R
ABILENE-DYESS  SUNNY     87  64  46 S18       30.06R
BRECKENRIDGE   SUNNY     91  59  33 S17G24    30.05S HAZE    HX  90
GRAHAM         SUNNY     90  61  38 S10G21    30.02F HX  90
MINERAL WELLS  SUNNY     89  65  44 S16       30.04S HX  91
STEPHENVILLE   SUNNY     86  64  46 S15       30.10S
COMANCHE       SUNNY     88  62  42 S15G21    30.08F
BROWNWOOD      SUNNY     86  61  42 S16G22    30.08S
COLEMAN        SUNNY     83  64  51 S15G22    30.08F
BRADY          SUNNY     84  63  48 S17       30.09S
$$

TXZ143>147-156>162-174-175-221700-
CENTRAL TEXAS

CITY           SKY/WX    TMP DP  RH WIND       PRES   REMARKS
WACO           SUNNY     89  70  53 S14       30.07S HX  94
WACO-TSTC      SUNNY     90  72  55 S7        30.07S HX  96
WACO-MCGREGOR  SUNNY     90  68  48 S15G23    30.08S HX  93
HILLSBORO      SUNNY     89  68  50 S13G20    30.07F HX  92
CORSICANA      SUNNY     90  71  53 S14       30.08F HX  96
MEXIA          SUNNY     87  73  62 SW12      30.08S HX  95
HEARNE           N/A     89  73  60 S6        30.08S HX  96
CAMERON        SUNNY     90  72  55 S15       30.08S HX  98
TEMPLE         SUNNY     90  68  48 S14G20    30.07S HX  93
KILLEEN        SUNNY     88  68  51 S12G22    30.08S HX  91
KILLEEN-SKYLRK SUNNY     90  68  48 S10G16    30.08S HX  93
FORT HOOD      SUNNY     91  67  44 S13       30.08S HX  94
GATESVILLE     SUNNY     88  68  51 SW13G23   30.10S HX  91
HAMILTON       SUNNY     89  61  39 SW18G24   30.10S
LAMPASAS       SUNNY     88  68  51 S10G18    30.09S HX  92
$$

TXZ095>097-106>112-122>126-135>138-148>153-164>167-221700-
EAST TEXAS

CITY           SKY/WX    TMP DP  RH WIND       PRES   REMARKS
PARIS          SUNNY     88  72  58 SW8       30.07S HX  94
SULPHUR SPRNGS SUNNY     89  71  54 SW12G18   30.09S HX  94
CLARKSVILLE    MOSUNNY   88  73  60 SW7       30.07S HX  94
MOUNT PLEASANT SUNNY     87  71  59 SW7       30.09F HX  92
GILMER         SUNNY     88  73  62 SW7       30.10S HX  96
MINEOLA        SUNNY     88  73  62 S8        30.09S HX  96
TYLER          SUNNY     87  72  60 SW9       30.09S HX  93
LONGVIEW       SUNNY     86  72  62 SW8       30.09S HX  92
MARSHALL       MOSUNNY   89  74  62 W8        30.12R HX  98
ATHENS         MOSUNNY   86  72  62 SW6       30.08S HX  92
PALESTINE      MOSUNNY   86  75  69 SW6       30.11R HX  95
JACKSONVILLE   SUNNY     85  74  67 SW8       30.13S HX  93
HENDERSON      SUNNY     85  72  65 SW9       30.11S HX  91
NACOGDOCHES    MOSUNNY   82  73  74 W7        30.11S
LUFKIN         PTSUNNY   88  76  67 W8        30.11S HX  99
$$

SUPPLEMENTAL OBSERVATIONS (CENTRAL)

CITY           SKY/WX    TMP DP  RH WIND       PRES   REMARKS
$$

SUPPLEMENTAL OBSERVATIONS (WEST)

CITY           SKY/WX    TMP DP  RH WIND       PRES   REMARKS
$$

SUPPLEMENTAL OBSERVATIONS (EAST)

CITY           SKY/WX    TMP DP  RH WIND       PRES   REMARKS
$$

SUPPLEMENTAL OBSERVATIONS ARE A COLLECTION OF AUTOMATED INSTRUMENTS
THAT ARE MAINTAINED BY A VARIETY OF FEDERAL AND STATE AGENCIES.
CERTAIN ELEMENTS...SUCH AS HUMIDITY VALUES AND SUSTAINED WIND
SPEEDS...MAY BE APPROXIMATED.



USA.gov is the U.S. government's official web portal to all federal, state and local government web resources and services.